CW9197 Weather Reports


Display with metric or nautical units.
time (UTC)temp
F
wind
direction
speed
MPH
gust
MPH
rain 1hr
in
rain 24hr
in
rain mn
in
humidity
%
barometer
mb
20260506123504 54 209 6.0 9.0 0.00 0.00 0.00 36 1011.7
20260506122503 53 235 4.0 9.0 0.00 0.00 0.00 36 1011.7
20260506121505 50 237 5.0 9.0 0.00 0.00 0.00 38 1011.7
20260506120504 49 267 7.0 21.0 0.00 0.00 0.00 37 1011.7
20260506115504 50 286 5.0 10.0 0.00 0.00 0.00 38 1011.6
20260506114504 50 249 4.0 10.0 0.00 0.00 0.00 40 1011.6
20260506113503 52 209 3.0 7.0 0.00 0.00 0.00 41 1011.5
20260506112505 50 236 5.0 12.0 0.00 0.00 0.00 41 1011.4
20260506111504 50 246 4.0 10.0 0.00 0.00 0.00 38 1011.4
20260506110504 52 251 6.0 13.0 0.00 0.00 0.00 37 1011.3
20260506105525 51 254 6.0 13.0 0.00 0.00 0.00 38 1011.2
20260506104504 54 228 6.0 15.0 0.00 0.00 0.00 39 1011.0
20260506103503 52 256 7.0 16.0 0.00 0.00 0.00 39 1011.0
20260506102505 54 225 4.0 6.0 0.00 0.00 0.00 41 1010.9
20260506101504 52 280 7.0 15.0 0.00 0.00 0.00 37 1010.8
20260506100524 53 210 5.0 10.0 0.00 0.00 0.00 41 1010.8
20260506095505 51 247 4.0 11.0 0.00 0.00 0.00 41 1010.8
20260506094504 54 217 4.0 10.0 0.00 0.00 0.00 43 1010.6
20260506093523 53 205 6.0 12.0 0.00 0.00 0.00 43 1010.5
20260506092503 49 254 6.0 13.0 0.00 0.00 0.00 43 1010.5
20260506091504 53 222 3.0 8.0 0.00 0.00 0.00 44 1010.3
20260506090504 51 208 6.0 12.0 0.00 0.00 0.00 44 1010.3
20260506085504 51 213 4.0 7.0 0.00 0.00 0.00 49 1010.3
20260506084503 49 220 5.0 17.0 0.00 0.00 0.00 52 1010.3
20260506083505 49 225 4.0 11.0 0.00 0.00 0.00 51 1010.2
20260506082524 49 214 5.0 11.0 0.00 0.00 0.00 51 1010.1
20260506081504 48 249 5.0 12.0 0.00 0.00 0.00 48 1010.0
20260506080503 51 225 4.0 15.0 0.00 0.00 0.00 50 1009.9
20260506073504 48 240 5.0 11.0 0.00 0.00 0.00 52 1009.7
20260506072504 47 254 6.0 14.0 0.00 0.00 0.00 51 1009.6
20260506071504 47 259 6.0 11.0 0.00 0.00 0.00 51 1009.6
20260506070503 48 263 4.0 17.0 0.00 0.00 0.00 54 1009.5
20260506062505 49 228 4.0 10.0 0.00 0.00 0.00 59 1009.1
20260506061504 48 206 3.0 6.0 0.00 0.00 0.00 61 1009.1
20260506060504 47 224 4.0 7.0 0.00 0.00 0.00 63 1009.0
20260506050503 43 217 3.0 6.0 0.00 0.00 0.00 72 1008.4
20260506044504 43 213 3.0 6.0 0.00 0.00 0.00 70 1008.1
20260506043504 43 217 3.0 6.0 0.00 0.00 0.00 69 1008.1
20260506042503 42 211 3.0 6.0 0.00 0.00 0.00 70 1008.0
20260506041503 41 206 3.0 4.0 0.00 0.00 0.00 72 1007.9
20260506040505 41 203 3.0 5.0 0.00 0.00 0.00 72 1007.8
20260506035544 40 206 4.0 7.0 0.00 0.00 0.00 73 1007.7
20260506034503 39 211 3.0 6.0 0.00 0.00 0.00 73 1007.6
20260506033523 39 205 3.0 6.0 0.00 0.00 0.00 73 1007.5
20260506032503 38 206 2.0 4.0 0.00 0.00 0.00 75 1007.5
20260506031505 37 200 3.0 5.0 0.00 0.00 0.00 75 1007.4
20260506030504 36 199 3.0 4.0 0.00 0.00 0.00 77 1007.2
20260506025504 35 191 2.0 4.0 0.00 0.00 0.00 81 1007.2
20260506024503 33 197 3.0 7.0 0.00 0.00 0.00 84 1007.1
20260506023505 32 196 2.0 3.0 0.00 0.00 0.00 85 1007.1
20260506022524 32 201 2.0 5.0 0.00 0.00 0.00 85 1007.0
20260506021504 32 206 3.0 4.0 0.00 0.00 0.00 86 1007.0
20260506020523 32 202 2.0 3.0 0.00 0.00 0.00 86 1007.0
20260506015524 31 202 2.0 4.0 0.00 0.00 0.00 87 1006.9
20260506014505 32 199 2.0 4.0 0.00 0.00 0.00 86 1006.9
20260506013524 31 206 2.0 4.0 0.00 0.00 0.00 86 1006.7
20260506012504 32 201 2.0 3.0 0.00 0.00 0.00 85 1006.6
20260506011503 32 197 2.0 3.0 0.00 0.00 0.00 85 1006.5
20260506010504 32 195 2.0 3.0 0.00 0.00 0.00 84 1006.5
20260506005505 33 222 1.0 3.0 0.00 0.00 0.00 84 1006.4
20260506004504 33 229 1.0 3.0 0.00 0.00 0.00 84 1006.3
20260506003504 33 228 1.0 2.0 0.00 0.00 0.00 85 1006.2
20260506002503 33 238 2.0 4.0 0.00 0.00 0.00 84 1006.1
20260506001503 34 230 2.0 4.0 0.00 0.00 0.00 83 1006.0
20260506000504 34 241 2.0 6.0 0.00 0.00 0.00 82 1005.9
20260505235524 34 240 2.0 5.0 0.00 0.00 0.00 83 1005.8
20260505234523 34 239 2.0 5.0 0.00 0.00 0.00 83 1005.7
20260505233503 34 230 1.0 3.0 0.00 0.00 0.00 84 1005.6
20260505232525 34 226 2.0 5.0 0.00 0.00 0.00 84 1005.6
20260505231504 34 232 2.0 5.0 0.00 0.00 0.00 83 1005.5
20260505230504 34 211 2.0 4.0 0.00 0.00 0.00 84 1005.4
20260505225504 34 216 2.0 4.0 0.00 0.00 0.00 84 1005.4
20260505224503 34 210 2.0 5.0 0.00 0.00 0.00 84 1005.3
20260505223504 34 209 2.0 4.0 0.00 0.00 0.00 84 1005.3
20260505222524 34 220 2.0 3.0 0.00 0.00 0.00 84 1005.3
20260505221524 35 212 2.0 3.0 0.00 0.00 0.00 83 1005.2
20260505220503 35 211 2.0 3.0 0.00 0.00 0.00 82 1005.2
20260505215505 35 201 2.0 3.0 0.00 0.00 0.00 81 1005.2
20260505214504 35 200 2.0 3.0 0.00 0.00 0.00 80 1005.1
20260505213503 35 195 2.0 4.0 0.00 0.00 0.00 80 1005.1
20260505212505 36 187 2.0 2.0 0.00 0.00 0.00 79 1005.0
20260505211504 36 185 1.0 3.0 0.00 0.00 0.00 78 1004.9
20260505210503 36 198 2.0 2.0 0.00 0.00 0.00 78 1004.9
20260505205506 36 202 1.0 2.0 0.00 0.00 0.00 79 1004.8
20260505204505 36 206 2.0 4.0 0.00 0.00 0.00 78 1004.8
20260505203503 36 206 2.0 3.0 0.00 0.00 0.00 79 1004.7
20260505202543 36 207 1.0 2.0 0.00 0.00 0.00 79 1004.6
20260505201505 36 226 1.0 2.0 0.00 0.00 0.00 79 1004.5
20260505200504 36 215 1.0 2.0 0.00 0.00 0.00 78 1004.5
20260505195524 36 216 1.0 3.0 0.00 0.00 0.00 79 1004.4
20260505194504 37 211 2.0 5.0 0.00 0.00 0.00 78 1004.4
20260505193503 37 225 1.0 4.0 0.00 0.00 0.00 80 1004.4
20260505192524 37 221 2.0 3.0 0.00 0.00 0.00 80 1004.4
20260505191524 37 223 2.0 3.0 0.00 0.00 0.00 80 1004.4
20260505190524 37 233 2.0 3.0 0.00 0.00 0.00 79 1004.4
20260505185504 38 217 3.0 6.0 0.00 0.00 0.00 79 1004.4
20260505184503 38 207 4.0 6.0 0.00 0.00 0.00 79 1004.3
20260505183504 38 208 3.0 5.0 0.00 0.00 0.00 80 1004.2
20260505182504 39 207 3.0 5.0 0.00 0.00 0.00 80 1004.2
20260505181504 39 209 3.0 4.0 0.00 0.00 0.00 81 1004.1
20260505180503 40 207 3.0 5.0 0.00 0.00 0.00 80 1004.1
20260505175503 40 207 3.0 5.0 0.00 0.00 0.00 80 1004.0
20260505174504 40 208 3.0 4.0 0.00 0.00 0.00 81 1004.0
20260505173524 41 211 3.0 4.0 0.00 0.00 0.00 79 1003.9
20260505172504 40 208 4.0 5.0 0.00 0.00 0.00 81 1003.9
20260505171503 41 207 4.0 5.0 0.00 0.00 0.00 80 1003.9
20260505170505 41 209 4.0 6.0 0.00 0.00 0.00 81 1003.9
20260505165504 41 210 4.0 6.0 0.00 0.00 0.00 79 1003.8
20260505164504 42 210 3.0 4.0 0.00 0.00 0.00 79 1003.9
20260505163504 42 203 2.0 3.0 0.00 0.00 0.00 79 1003.9
20260505162503 41 274 4.0 11.0 0.00 0.00 0.00 81 1004.1
20260505161545 42 267 8.0 23.0 0.00 0.00 0.00 73 1004.3
20260505160504 42 330 3.0 7.0 0.00 0.00 0.00 74 1003.9
20260505152525 47 207 4.0 11.0 0.00 0.00 0.00 64 1003.3
20260505151504 46 202 4.0 7.0 0.00 0.00 0.00 68 1003.3
20260505150504 45 209 3.0 5.0 0.00 0.00 0.00 69 1003.3
20260505140503 48 213 6.0 12.0 0.00 0.00 0.00 58 1002.6
20260505124524 48 221 4.0 10.0 0.00 0.00 0.00 63 1001.9